[[{"header":{"parameterUnit":"m.s-1","parameterCategory":1,"la1":30.2991,"la2":30.254,"lo1":-89.0895,"lo2":-89.0444,"dy":0.0017,"dx":0.0017,"nx":28,"ny":28,"refTime":"2023-03-16T21:00:00:Z","depth":0,"parameterNumber":2,"parameterNumberName":"U-component_of_WINDS"},"data":[0,0,0,0,0,0,0,0,0,0,0,0,0,0,0,0,0,0,0,0,0,0,0,0,0,0,0,0,0,0,0,0,0,0,0,0,0,0,0,0,0,0,0,0,0,0,0,0,0,0,0,0,0,0,0,0,0,0,1.7631,1.7631,0,1.7682,1.7683,1.7684,1.7685,1.7684,1.7684,1.7683,1.7735,1.7737,1.7739,0,0,0,0,0,0,0,0,0,0,0,0,0,1.7533,1.7535,1.7631,1.7631,1.7632,1.7682,1.7683,1.7684,1.7685,1.7684,1.7684,1.7683,1.7734,1.7737,1.7739,0,0,0,0,0,0,0,0,0,0,0,0,0,1.7579,1.7536,1.763,1.7639,1.764,1.7682,1.7683,1.7684,1.7685,1.7684,1.7683,1.7683,1.7734,1.7736,1.7739,1.7776,0,0,1.7748,1.775,0,0,0,0,0,0,0,0,1.7577,1.7583,1.7637,1.7638,1.764,1.7676,1.7668,1.7715,1.7686,1.7668,1.7683,1.7682,1.7716,1.7721,1.7732,1.7779,1.7781,1.7749,1.775,1.7752,1.7753,0,0,0,0,0,0,0,1.7574,1.7581,1.7651,1.7638,1.7639,1.764,1.7645,1.7677,1.7697,1.7669,1.767,1.7676,1.7717,1.7729,1.7733,1.7782,1.7749,1.7751,1.7753,1.7754,1.7864,1.7865,0,0,0,0,0,0,1.7569,1.7578,1.7649,1.7653,1.7605,1.7642,1.7649,1.7665,1.7696,1.77,1.7677,1.7676,1.7725,1.773,1.7735,1.7782,1.7752,1.7754,1.7756,1.7863,1.7864,1.7865,0,0,0,0,0,0,1.7567,1.7575,1.7647,1.7615,1.7625,1.7645,1.7664,1.7667,1.768,1.7702,1.7705,1.7686,1.7724,1.7731,1.7767,1.7784,1.7756,1.7758,1.7861,1.7863,1.7865,1.7874,0,0,0,0,0,0,1.7564,1.7574,1.7588,1.7616,1.7626,1.7678,1.7665,1.7669,1.7685,1.7684,1.7711,1.7715,1.7724,1.7762,1.777,1.7787,1.7761,1.786,1.7862,1.7864,1.7873,1.7876,1.7879,0,0,0,0,0,1.756,1.7588,1.7589,1.7598,1.7644,1.7679,1.7685,1.7695,1.7686,1.7701,1.7715,1.7714,1.7781,1.7766,1.7774,1.7793,1.7859,1.7861,1.7864,1.7871,1.7876,1.7879,0,0,0,0,0,0,1.7561,1.7592,1.7593,1.7631,1.7652,1.7679,1.7697,1.7699,1.7723,1.7721,1.7733,1.7739,1.7774,1.7787,1.777,1.7831,1.7819,1.7823,1.7822,1.7826,1.7829,1.7825,1.7763,0,0,0,0,0,1.7566,1.7592,1.7617,1.7648,1.7659,1.7676,1.7691,1.7698,1.772,1.7729,1.7746,1.7768,1.7794,1.7811,1.7836,1.7875,1.7881,1.7892,1.7895,1.7898,1.7901,1.7925,1.793,1.7874,1.7874,1.7874,0,0,1.7576,1.7596,1.7611,1.7649,1.7666,1.7692,1.7684,1.7711,1.7731,1.7733,1.7768,1.7782,1.7807,1.7845,1.7862,1.7857,1.7919,1.7901,1.7903,1.7905,1.7928,1.7933,1.7938,1.7875,1.7875,1.7875,0,0,1.7607,1.7624,1.7653,1.7671,1.7698,1.771,1.7717,1.7744,1.7753,1.7788,1.7791,1.7815,1.7859,1.7878,1.7893,1.7934,1.7934,1.7942,1.7959,1.7981,1.7986,1.799,1.8005,1.801,1.7945,1.7945,1.7945,0,1.7615,1.7655,1.7667,1.7695,1.7712,1.7717,1.7746,1.7763,1.7796,1.7808,1.7801,1.7858,1.7875,1.7919,1.7929,1.7941,1.7949,1.7938,1.7984,1.7988,1.7992,1.8007,1.8012,1.7946,1.7946,1.7946,1.7946,0,1.7665,1.7693,1.7712,1.7746,1.7765,1.7793,1.781,1.7828,1.7834,1.7846,1.7883,1.7905,1.7935,1.7946,1.795,1.799,1.7986,1.7982,1.7969,1.7998,1.8012,1.8018,1.7947,1.7947,1.7946,1.7946,0,0,1.7696,1.7737,1.7744,1.776,1.7791,1.7813,1.7843,1.7873,1.7889,1.7913,1.7938,1.7977,1.7974,1.7991,1.7998,1.8018,1.805,1.8011,1.8012,1.8018,1.8097,1.81,1.8106,1.8051,1.8052,1.8053,1.8095,0,1.7731,1.7783,1.7796,1.7841,1.7867,1.7873,1.7899,1.7921,1.7935,1.796,1.7974,1.8002,1.7995,1.8006,1.8026,1.8042,1.8066,1.8039,1.8075,1.8076,1.8068,1.8113,1.8116,1.8154,1.81,1.8101,1.8102,0,1.7777,1.7804,1.7852,1.7881,1.7893,1.7916,1.7946,1.7969,1.7995,1.8004,1.8024,1.803,1.8062,1.8049,1.8093,1.8075,1.809,1.8101,1.8103,1.8106,1.809,1.8118,1.8166,1.8172,1.811,1.811,1.8109,0,1.7796,1.7843,1.7878,1.7892,1.7927,1.7943,1.7959,1.7984,1.8002,1.8028,1.8041,1.807,1.8086,1.8109,1.8123,1.8112,1.8167,1.8155,1.8175,1.8175,1.8186,1.8185,1.8237,1.8196,1.8196,1.8196,1.8196,0,1.7833,1.7863,1.7887,1.7909,1.7943,1.7957,1.799,1.8006,1.8029,1.8054,1.8061,1.8084,1.8102,1.8128,1.814,1.8175,1.8182,1.8191,1.8193,1.819,1.8189,1.82,1.8198,1.8198,1.8197,1.8197,1.8197,0,1.7859,1.7877,1.7916,1.7947,1.7955,1.7979,1.8005,1.8027,1.8042,1.8074,1.8082,1.8105,1.8137,1.8153,1.8192,1.82,1.8241,1.8242,1.8232,1.8233,1.8253,1.8251,1.8314,1.8323,1.8276,1.8277,1.8277,0,1.7881,1.7904,1.7938,1.7956,1.7972,1.8,1.802,1.8036,1.8055,1.8088,1.8106,1.8138,1.8165,1.8215,1.8235,1.8266,1.8268,1.8288,1.8272,1.8269,1.8269,1.8267,1.827,1.829,1.8291,1.8291,1.8292,0,1.7919,1.7928,1.7955,1.7986,1.8009,1.8034,1.8059,1.8073,1.8094,1.8116,1.8148,1.8169,1.821,1.8242,1.8275,1.8291,1.8295,1.8297,1.8303,1.83,1.8293,1.8298,1.8239,1.8295,1.8294,1.8294,1.8294,1.8294,1.7944,1.7966,1.7993,1.8024,1.8045,1.8069,1.8091,1.8109,1.8137,1.8172,1.818,1.8215,1.8243,1.8287,1.8305,1.8333,1.8329,1.8338,1.834,1.8342,1.8343,1.8289,1.8339,1.8339,1.8338,1.8338,1.8338,0,1.7983,1.8002,1.803,1.8065,1.809,1.8093,1.8121,1.8141,1.8172,1.8198,1.8224,1.8263,1.8295,1.8319,1.8352,1.837,1.8372,1.8378,1.8376,1.838,1.8345,1.8336,1.8375,1.8375,1.8375,1.8375,1.8375,1.8375,1.8006,1.8042,1.8054,1.8102,1.8121,1.8155,1.8172,1.8194,1.8215,1.8258,1.8285,1.83,1.8326,1.8361,1.8391,1.8397,1.8409,1.8414,1.842,1.8386,1.8383,1.8379,1.8371,1.8416,1.8416,1.8454,1.8454,1.8454]},{"header":{"parameterUnit":"m.s-1","parameterCategory":1,"la1":30.2991,"la2":30.254,"lo1":-89.0895,"lo2":-89.0444,"dy":0.0017,"dx":0.0017,"nx":28,"ny":28,"refTime":"2023-03-16T21:00:00:Z","depth":0,"parameterNumber":3,"parameterNumberName":"V-component_of_WINDS"},"data":[0,0,0,0,0,0,0,0,0,0,0,0,0,0,0,0,0,0,0,0,0,0,0,0,0,0,0,0,0,0,0,0,0,0,0,0,0,0,0,0,0,0,0,0,0,0,0,0,0,0,0,0,0,0,0,0,0,0,-7.6392,-7.6393,0,-7.6524,-7.6525,-7.6527,-7.6465,-7.6462,-7.6458,-7.6455,-7.6583,-7.6589,-7.6596,0,0,0,0,0,0,0,0,0,0,0,0,0,-7.6082,-7.6088,-7.6392,-7.6394,-7.6395,-7.6523,-7.6525,-7.6527,-7.6465,-7.6461,-7.6457,-7.6454,-7.6581,-7.6589,-7.6596,0,0,0,0,0,0,0,0,0,0,0,0,0,-7.6215,-7.609,-7.6392,-7.638,-7.638,-7.6523,-7.6525,-7.6527,-7.6466,-7.6461,-7.6456,-7.6452,-7.6578,-7.6588,-7.6597,-7.6757,0,0,-7.6627,-7.6631,0,0,0,0,0,0,0,0,-7.6208,-7.6227,-7.638,-7.6381,-7.6382,-7.6473,-7.6463,-7.6604,-7.6468,-7.6434,-7.6455,-7.6449,-7.655,-7.6562,-7.6597,-7.6763,-7.6768,-7.6628,-7.6634,-7.6638,-7.6641,0,0,0,0,0,0,0,-7.6199,-7.6221,-7.6444,-7.6382,-7.6384,-7.6367,-7.638,-7.6489,-7.6518,-7.6436,-7.6432,-7.6449,-7.6549,-7.6588,-7.66,-7.677,-7.6628,-7.6636,-7.6642,-7.6646,-7.7074,-7.7079,0,0,0,0,0,0,-7.619,-7.6213,-7.644,-7.6448,-7.6281,-7.6376,-7.6391,-7.6449,-7.6516,-7.6522,-7.6453,-7.6445,-7.6574,-7.6588,-7.6604,-7.6795,-7.6638,-7.6647,-7.6653,-7.7068,-7.7075,-7.7081,0,0,0,0,0,0,-7.6184,-7.6211,-7.6434,-7.633,-7.6357,-7.6387,-7.6452,-7.6454,-7.6492,-7.6529,-7.6533,-7.6487,-7.657,-7.659,-7.672,-7.6799,-7.6652,-7.666,-7.7062,-7.707,-7.7078,-7.7179,0,0,0,0,0,0,-7.6175,-7.6209,-7.6271,-7.6332,-7.6363,-7.655,-7.6457,-7.646,-7.651,-7.6501,-7.6563,-7.6568,-7.6568,-7.6706,-7.673,-7.681,-7.6668,-7.7055,-7.7065,-7.7075,-7.7169,-7.719,-7.7208,0,0,0,0,0,-7.6165,-7.6293,-7.6275,-7.6303,-7.6441,-7.6555,-7.6572,-7.6572,-7.6517,-7.6578,-7.6602,-7.6566,-7.6787,-7.672,-7.6746,-7.683,-7.705,-7.7062,-7.7074,-7.716,-7.7186,-7.7207,0,0,0,0,0,0,-7.6239,-7.6301,-7.6281,-7.6433,-7.649,-7.6544,-7.6622,-7.6599,-7.667,-7.6659,-7.6653,-7.6667,-7.6802,-7.6829,-7.6753,-7.6988,-7.6909,-7.6928,-7.6966,-7.699,-7.7009,-7.7,-7.6676,0,0,0,0,0,-7.6273,-7.6363,-7.6411,-7.654,-7.657,-7.6592,-7.6641,-7.6636,-7.6693,-7.6716,-7.6749,-7.6804,-7.6886,-7.6939,-7.7016,-7.7173,-7.7185,-7.7244,-7.7263,-7.7279,-7.7294,-7.7379,-7.7406,-7.7121,-7.7121,-7.7121,0,0,-7.6345,-7.639,-7.6446,-7.6557,-7.66,-7.669,-7.6612,-7.6711,-7.6778,-7.673,-7.6855,-7.6882,-7.6943,-7.7087,-7.7151,-7.7113,-7.7376,-7.7295,-7.7307,-7.7314,-7.7395,-7.7422,-7.7445,-7.713,-7.7128,-7.7127,0,0,-7.6521,-7.6565,-7.6678,-7.6723,-7.679,-7.6804,-7.6831,-7.689,-7.6907,-7.7033,-7.7,-7.7078,-7.7219,-7.7264,-7.7305,-7.7501,-7.747,-7.7526,-7.7627,-7.771,-7.7732,-7.7752,-7.7822,-7.7847,-7.7541,-7.7542,-7.7542,0,-7.66,-7.6738,-7.6738,-7.6841,-7.689,-7.6854,-7.6968,-7.7011,-7.7099,-7.7134,-7.709,-7.7267,-7.7305,-7.7459,-7.7508,-7.7542,-7.7572,-7.7518,-7.773,-7.7749,-7.7768,-7.7834,-7.786,-7.7548,-7.7547,-7.7547,-7.7546,0,-7.6833,-7.6929,-7.7012,-7.7101,-7.716,-7.7267,-7.7282,-7.7341,-7.7331,-7.7349,-7.7478,-7.7523,-7.7609,-7.7646,-7.7636,-7.7799,-7.7773,-7.773,-7.765,-7.7801,-7.7863,-7.7889,-7.7557,-7.7555,-7.7553,-7.7551,0,0,-7.7058,-7.7148,-7.7178,-7.7218,-7.7291,-7.7364,-7.7469,-7.7556,-7.7607,-7.7669,-7.7757,-7.7878,-7.7839,-7.7886,-7.7881,-7.7954,-7.8106,-7.7902,-7.7903,-7.7938,-7.8288,-7.832,-7.8349,-7.8086,-7.8091,-7.8095,-7.8283,0,-7.724,-7.7428,-7.7431,-7.7603,-7.7691,-7.7659,-7.7751,-7.7804,-7.7824,-7.7901,-7.7921,-7.8008,-7.795,-7.7978,-7.8049,-7.8073,-7.8176,-7.8059,-7.8166,-7.817,-7.8152,-7.8382,-7.8416,-7.8591,-7.8307,-7.8311,-7.8314,0,-7.7477,-7.755,-7.7731,-7.7792,-7.7829,-7.7912,-7.7992,-7.8066,-7.8126,-7.8135,-7.8189,-7.8173,-7.8279,-7.8198,-7.8344,-7.8264,-7.8308,-7.8327,-7.8333,-7.8343,-7.8251,-7.8397,-7.8646,-7.8673,-7.8352,-7.8349,-7.8347,0,-7.7623,-7.7766,-7.7894,-7.7929,-7.8003,-7.8062,-7.8095,-7.815,-7.8202,-7.8272,-7.8306,-7.8386,-7.8429,-7.8491,-7.8497,-7.8437,-7.8643,-7.8562,-7.8653,-7.8653,-7.8697,-7.8694,-7.8957,-7.8726,-7.8726,-7.8725,-7.8725,0,-7.7825,-7.7937,-7.7961,-7.8039,-7.8163,-7.8166,-7.8288,-7.8316,-7.8366,-7.8447,-7.8423,-7.85,-7.8504,-7.8582,-7.8587,-7.8707,-7.8727,-7.8736,-7.8736,-7.8738,-7.8737,-7.8766,-7.8754,-7.8732,-7.8731,-7.8729,-7.8728,0,-7.8009,-7.803,-7.8166,-7.8226,-7.8244,-7.8333,-7.8383,-7.8457,-7.8475,-7.8579,-7.8603,-7.8631,-7.8723,-7.8735,-7.8841,-7.8844,-7.8988,-7.8975,-7.8969,-7.8967,-7.9057,-7.9048,-7.9347,-7.9386,-7.9131,-7.9133,-7.9135,0,-7.8137,-7.8223,-7.8293,-7.8348,-7.8385,-7.8472,-7.8526,-7.8532,-7.8589,-7.8664,-7.8729,-7.8818,-7.889,-7.9036,-7.9065,-7.9146,-7.9134,-7.9233,-7.9146,-7.9146,-7.9135,-7.913,-7.9138,-7.925,-7.9253,-7.9255,-7.9257,0,-7.8361,-7.8367,-7.8448,-7.8532,-7.8598,-7.8664,-7.8726,-7.8772,-7.8785,-7.885,-7.8945,-7.9001,-7.911,-7.9198,-7.9279,-7.931,-7.9286,-7.9285,-7.931,-7.9312,-7.9305,-7.931,-7.9015,-7.9277,-7.9275,-7.9274,-7.9273,-7.9272,-7.8521,-7.8596,-7.8658,-7.8748,-7.8796,-7.8855,-7.8928,-7.8957,-7.9037,-7.9128,-7.9126,-7.923,-7.9287,-7.9393,-7.943,-7.951,-7.9477,-7.9513,-7.9523,-7.9531,-7.954,-7.9294,-7.9524,-7.9524,-7.9523,-7.9523,-7.9522,0,-7.8743,-7.8782,-7.8866,-7.8955,-7.9026,-7.9,-7.9068,-7.9128,-7.922,-7.9277,-7.9349,-7.9458,-7.9544,-7.958,-7.9664,-7.9721,-7.9712,-7.9743,-7.9738,-7.9746,-7.9565,-7.9535,-7.9749,-7.9749,-7.9749,-7.9749,-7.9749,-7.9748,-7.8868,-7.8994,-7.9008,-7.9158,-7.9195,-7.9299,-7.9339,-7.9393,-7.9439,-7.9562,-7.9635,-7.9659,-7.9707,-7.9795,-7.9872,-7.988,-7.9912,-7.9948,-7.9951,-7.9781,-7.9758,-7.9736,-7.9708,-7.9955,-7.9955,-8.0125,-8.0127,-8.0128]}]]